Weather History for KDUG - May, 2013

Change the Weather History Date:

Friday, May 3, 2013

  Actual Average Record
Temperature  
Mean Temperature 65 °F 66 °F  
Max Temperature 79 °F 84 °F 94 °F (2000)
Min Temperature 50 °F 48 °F 32 °F (1953)
Degree Days  
Heating Degree Days 0 2  
Month to date heating degree days 0 6  
Since 1 July heating degree days 2557 2507  
Cooling Degree Days 0 3  
Month to date cooling degree days 6 9  
Year to date cooling degree days 35 39  
Growing Degree Days 14 (Base 50)    
Moisture  
Dew Point 15 °F    
Average Humidity 19    
Maximum Humidity 29    
Minimum Humidity 8    
Precipitation  
Precipitation 0.00 in 0.00 in 0.14 in (1986)
Month to date precipitation 0.00 0.02  
Year to date precipitation 0.87 2.14  
Snow  
Snow 0.00 in - - ()
Month to date snowfall 0.0  
Snow Depth 0.00 in    
Sea Level Pressure  
Sea Level Pressure 29.96 in    
Wind  
Wind Speed 11 mph (East)    
Max Wind Speed 24 mph    
Max Gust Speed 31 mph    
Visibility 10 miles    
Events      
T = Trace of Precipitation, MM = Missing Value Source: NWS Daily Summary

Daily Weather History Graph

Daily Weather History Graph

Search for Another Location

Airport or City:

Trip Planner

Search our weather history database for the weather conditions in past years. The results will help you decide how hot, cold, wet, or windy it might be!

Date:

Astronomy

May. 03, 2013 Rise Set
Actual Time 5:31 AM MST 6:59 PM MST
Civil Twilight 5:05 AM MST 7:25 PM MST
Nautical Twilight 4:34 AM MST 7:56 PM MST
Astronomical Twilight 4:01 AM MST 8:29 PM MST
Moon 1:33 AM MST (5/3) 1:19 PM MST (5/3)
Length of Visible Light 14h 20m
Length of Day
13h 28m
Waning Crescent, 36% of the Moon is Illuminated
May 3
Waning Crescent
May 9
New
May 17
First Quarter
May 24
Full
May 31
Last Quarter

Hourly Weather History & Observations

Time (MST) Temp. Dew Point Humidity Pressure Visibility Wind Dir Wind Speed Gust Speed Precip Events Conditions
12:56 AM 54.0 °F 21.0 °F 28% 30.09 in 10.0 mi East 17.3 mph 21.9 mph N/A   Clear
1:56 AM 53.1 °F 21.0 °F 29% 30.10 in 10.0 mi East 13.8 mph 24.2 mph N/A   Clear
2:56 AM 51.1 °F 19.9 °F 29% 30.10 in 10.0 mi East 13.8 mph - N/A   Clear
3:56 AM 51.1 °F 19.9 °F 29% 30.09 in 10.0 mi East 11.5 mph - N/A   Clear
4:56 AM 50.0 °F 19.9 °F 31% 30.09 in 10.0 mi East 19.6 mph 24.2 mph N/A   Clear
5:56 AM 51.1 °F 19.0 °F 28% 30.10 in 10.0 mi East 15.0 mph - N/A   Clear
6:56 AM 53.1 °F 19.0 °F 26% 30.11 in 10.0 mi East 17.3 mph - N/A   Clear
7:56 AM 55.9 °F 18.0 °F 23% 30.10 in 10.0 mi East 20.7 mph - N/A   Clear
8:56 AM 60.1 °F 18.0 °F 20% 30.09 in 10.0 mi East 19.6 mph 27.6 mph N/A   Clear
9:56 AM 64.0 °F 16.0 °F 16% 30.06 in 10.0 mi East 19.6 mph 26.5 mph N/A   Clear
10:56 AM 69.1 °F 12.9 °F 11% 30.03 in 10.0 mi East 13.8 mph 28.8 mph N/A   Clear
11:56 AM 71.1 °F 12.0 °F 10% 29.99 in 10.0 mi East 13.8 mph 20.7 mph N/A   Clear
12:56 PM 73.9 °F 10.0 °F 9% 29.95 in 10.0 mi SE 11.5 mph 23.0 mph N/A   Clear
1:56 PM 73.9 °F 12.0 °F 9% 29.91 in 10.0 mi ESE 12.7 mph 18.4 mph N/A   Clear
2:56 PM 75.9 °F 12.0 °F 9% 29.88 in 10.0 mi ESE 9.2 mph 18.4 mph N/A   Clear
3:56 PM 78.1 °F 12.9 °F 8% 29.85 in 10.0 mi Variable 6.9 mph - N/A   Clear
4:56 PM 77.0 °F 12.0 °F 8% 29.84 in 10.0 mi South 4.6 mph - N/A   Clear
5:56 PM 78.1 °F 12.0 °F 8% 29.82 in 10.0 mi Calm Calm - N/A   Clear
6:56 PM 73.0 °F 12.0 °F 10% 29.82 in 10.0 mi ESE 4.6 mph - N/A   Clear
7:56 PM 69.1 °F 14.0 °F 12% 29.82 in 10.0 mi East 8.1 mph - N/A   Clear
8:56 PM 66.9 °F 14.0 °F 13% 29.82 in 10.0 mi East 6.9 mph - N/A   Clear
9:56 PM 59.0 °F 12.0 °F 16% 29.83 in 10.0 mi WNW 5.8 mph - N/A   Clear
10:56 PM 60.1 °F 12.9 °F 16% 29.81 in 10.0 mi NNW 3.5 mph - N/A   Clear
11:56 PM 57.9 °F 12.9 °F 17% 29.81 in 10.0 mi NNW 4.6 mph - N/A   Clear